| time (UTC) | temp F | wind direction | speed knots | gust knots | rain 1hr in | rain 24hr in | rain mn in | humidity % | barometer mb |
| 20260510041230 | 44 | 195 | 0.0 | 0.0 | 0.00 | 0.09 | 0.09 | 62 | 1016.9 |
| 20260510040727 | 45 | 195 | 0.0 | 0.0 | 0.00 | 0.09 | 0.09 | 61 | 1017.1 |
| 20260510040224 | 45 | 195 | 0.0 | 0.0 | 0.00 | 0.09 | 0.09 | 65 | 1017.0 |
| 20260510035719 | 46 | 195 | 0.0 | 0.0 | 0.00 | 0.09 | 0.09 | 64 | 1017.1 |
| 20260510035216 | 45 | 222 | 0.0 | 0.0 | 0.00 | 0.09 | 0.09 | 63 | 1017.1 |
| 20260510034711 | 45 | 224 | 0.0 | 0.0 | 0.00 | 0.09 | 0.09 | 64 | 1016.9 |
| 20260510034209 | 45 | 224 | 0.0 | 0.0 | 0.00 | 0.09 | 0.09 | 61 | 1017.0 |
| 20260510033704 | 45 | 224 | 0.0 | 0.0 | 0.00 | 0.09 | 0.09 | 61 | 1017.0 |
| 20260510033203 | 45 | 224 | 0.0 | 0.0 | 0.00 | 0.09 | 0.09 | 59 | 1016.8 |
| 20260510032658 | 45 | 224 | 0.0 | 0.0 | 0.00 | 0.09 | 0.09 | 59 | 1016.8 |
| 20260510032154 | 46 | 224 | 0.0 | 0.0 | 0.00 | 0.09 | 0.09 | 57 | 1016.8 |
| 20260510031649 | 46 | 225 | 0.0 | 0.0 | 0.00 | 0.09 | 0.09 | 56 | 1017.0 |
| 20260510031146 | 46 | 225 | 0.0 | 0.0 | 0.00 | 0.09 | 0.09 | 56 | 1016.8 |
| 20260510030640 | 46 | 224 | 0.0 | 0.0 | 0.00 | 0.09 | 0.09 | 56 | 1016.7 |
| 20260510030138 | 46 | 225 | 0.0 | 0.0 | 0.00 | 0.09 | 0.09 | 55 | 1016.8 |
| 20260510025635 | 47 | 224 | 0.0 | 0.0 | 0.00 | 0.09 | 0.09 | 53 | 1016.6 |
| 20260510025132 | 48 | 224 | 0.0 | 0.0 | 0.00 | 0.09 | 0.09 | 53 | 1016.6 |
| 20260510024629 | 48 | 342 | 0.0 | 0.0 | 0.00 | 0.09 | 0.09 | 50 | 1016.5 |
| 20260510024126 | 49 | 234 | 0.0 | 0.9 | 0.00 | 0.09 | 0.09 | 49 | 1016.5 |
| 20260510023621 | 49 | 268 | 0.9 | 0.9 | 0.00 | 0.09 | 0.09 | 47 | 1016.5 |
| 20260510023119 | 49 | 247 | 0.0 | 0.9 | 0.00 | 0.09 | 0.09 | 48 | 1016.4 |
| 20260510022613 | 49 | 299 | 0.9 | 0.9 | 0.00 | 0.09 | 0.09 | 48 | 1016.4 |
| 20260510022108 | 49 | 273 | 0.0 | 0.9 | 0.00 | 0.09 | 0.09 | 47 | 1016.4 |
| 20260510021604 | 50 | 299 | 0.0 | 0.9 | 0.00 | 0.09 | 0.09 | 47 | 1016.2 |
| 20260510021102 | 50 | 22 | 0.0 | 0.9 | 0.00 | 0.09 | 0.09 | 47 | 1016.2 |
| 20260510020556 | 50 | 340 | 0.9 | 2.6 | 0.00 | 0.09 | 0.09 | 46 | 1016.1 |
| 20260510020052 | 50 | 337 | 0.0 | 2.6 | 0.00 | 0.09 | 0.09 | 45 | 1016.1 |
| 20260510015548 | 50 | 309 | 2.6 | 3.5 | 0.00 | 0.09 | 0.09 | 44 | 1016.1 |
| 20260510015044 | 50 | 299 | 0.9 | 2.6 | 0.00 | 0.09 | 0.09 | 44 | 1015.7 |
| 20260510014540 | 50 | 308 | 2.6 | 5.2 | 0.00 | 0.09 | 0.09 | 43 | 1015.8 |
| 20260510014037 | 51 | 317 | 1.7 | 3.5 | 0.00 | 0.09 | 0.09 | 43 | 1015.8 |
| 20260510013531 | 51 | 352 | 3.5 | 5.2 | 0.00 | 0.09 | 0.09 | 43 | 1015.7 |
| 20260510013028 | 51 | 344 | 1.7 | 7.0 | 0.00 | 0.09 | 0.09 | 42 | 1015.7 |
| 20260510012522 | 51 | 5 | 2.6 | 6.1 | 0.00 | 0.09 | 0.09 | 42 | 1015.4 |
| 20260510012019 | 51 | 358 | 3.5 | 7.0 | 0.00 | 0.09 | 0.09 | 42 | 1015.4 |
| 20260510011518 | 51 | 283 | 2.6 | 7.8 | 0.00 | 0.09 | 0.09 | 41 | 1015.4 |
| 20260510011013 | 52 | 291 | 3.5 | 7.0 | 0.00 | 0.09 | 0.09 | 41 | 1015.3 |
| 20260510010511 | 52 | 338 | 3.5 | 5.2 | 0.00 | 0.09 | 0.09 | 41 | 1015.3 |
| 20260510010008 | 52 | 357 | 3.5 | 7.8 | 0.00 | 0.09 | 0.09 | 40 | 1015.4 |
| 20260510005503 | 52 | 358 | 4.3 | 7.0 | 0.00 | 0.09 | 0.09 | 40 | 1015.2 |
| 20260510005001 | 52 | 302 | 3.5 | 8.7 | 0.00 | 0.09 | 0.09 | 40 | 1015.0 |
| 20260510004458 | 53 | 243 | 2.6 | 8.7 | 0.00 | 0.09 | 0.09 | 39 | 1015.2 |
| 20260510003957 | 53 | 338 | 5.2 | 8.7 | 0.00 | 0.09 | 0.09 | 39 | 1015.1 |
| 20260510003453 | 52 | 116 | 1.7 | 3.5 | 0.00 | 0.09 | 0.09 | 41 | 1014.9 |
| 20260510002948 | 53 | 359 | 4.3 | 6.1 | 0.00 | 0.09 | 0.09 | 39 | 1015.0 |
| 20260510002444 | 53 | 21 | 3.5 | 6.1 | 0.00 | 0.09 | 0.09 | 39 | 1014.9 |
| 20260510001942 | 54 | 9 | 3.5 | 9.6 | 0.00 | 0.09 | 0.09 | 38 | 1015.1 |
| 20260510001439 | 55 | 329 | 6.1 | 9.6 | 0.00 | 0.09 | 0.09 | 38 | 1015.0 |
| 20260510000937 | 54 | 19 | 7.0 | 9.6 | 0.00 | 0.09 | 0.09 | 37 | 1014.7 |
| 20260510000433 | 55 | 9 | 4.3 | 7.8 | 0.00 | 0.09 | 0.09 | 37 | 1014.7 |
| 20260509235929 | 55 | 332 | 3.5 | 7.0 | 0.00 | 0.09 | 0.09 | 40 | 1014.6 |
| 20260509235426 | 55 | 314 | 7.8 | 13.0 | 0.00 | 0.09 | 0.09 | 35 | 1014.7 |
| 20260509234921 | 55 | 314 | 7.8 | 13.0 | 0.00 | 0.09 | 0.09 | 35 | 1014.7 |
| 20260509234419 | 55 | 314 | 7.8 | 13.0 | 0.00 | 0.09 | 0.09 | 35 | 1014.6 |
| 20260509233917 | 55 | 349 | 4.3 | 6.1 | 0.00 | 0.09 | 0.09 | 38 | 1014.4 |
| 20260509233415 | 53 | 345 | 5.2 | 7.8 | 0.00 | 0.09 | 0.09 | 39 | 1014.2 |
| 20260509232911 | 54 | 340 | 1.7 | 3.5 | 0.00 | 0.09 | 0.09 | 39 | 1014.5 |
| 20260509232408 | 53 | 332 | 4.3 | 7.0 | 0.00 | 0.09 | 0.09 | 38 | 1014.5 |
| 20260509231904 | 54 | 27 | 4.3 | 6.1 | 0.00 | 0.09 | 0.09 | 38 | 1014.1 |
| 20260509231400 | 55 | 16 | 5.2 | 7.0 | 0.00 | 0.09 | 0.09 | 39 | 1014.0 |
| 20260509230858 | 55 | 16 | 5.2 | 7.0 | 0.00 | 0.09 | 0.09 | 39 | 1014.2 |
| 20260509230355 | 55 | 16 | 5.2 | 7.0 | 0.00 | 0.09 | 0.09 | 39 | 1014.3 |
| 20260509225851 | 55 | 16 | 5.2 | 7.0 | 0.00 | 0.09 | 0.09 | 39 | 1014.3 |
| 20260509225348 | 55 | 307 | 5.2 | 7.0 | 0.00 | 0.09 | 0.09 | 38 | 1014.1 |
| 20260509224843 | 55 | 307 | 5.2 | 7.0 | 0.00 | 0.09 | 0.09 | 38 | 1014.1 |
| 20260509224339 | 54 | 343 | 2.6 | 3.5 | 0.00 | 0.09 | 0.09 | 42 | 1014.0 |
| 20260509223836 | 54 | 343 | 2.6 | 3.5 | 0.00 | 0.09 | 0.09 | 42 | 1014.0 |
| 20260509223333 | 54 | 343 | 2.6 | 3.5 | 0.00 | 0.09 | 0.09 | 42 | 1014.0 |
| 20260509222830 | 54 | 323 | 5.2 | 8.7 | 0.00 | 0.09 | 0.09 | 40 | 1014.1 |
| 20260509222325 | 54 | 57 | 5.2 | 7.8 | 0.00 | 0.09 | 0.09 | 41 | 1013.9 |
| 20260509221821 | 55 | 2 | 4.3 | 7.0 | 0.00 | 0.09 | 0.09 | 40 | 1013.8 |
| 20260509221319 | 56 | 304 | 2.6 | 7.0 | 0.00 | 0.09 | 0.09 | 41 | 1013.7 |
| 20260509220814 | 56 | 258 | 2.6 | 11.3 | 0.00 | 0.09 | 0.09 | 41 | 1013.8 |
| 20260509220310 | 56 | 346 | 3.5 | 7.8 | 0.00 | 0.09 | 0.09 | 40 | 1013.7 |
| 20260509215806 | 56 | 31 | 3.5 | 8.7 | 0.00 | 0.09 | 0.09 | 40 | 1014.1 |
| 20260509215306 | 56 | 356 | 6.1 | 9.6 | 0.00 | 0.09 | 0.09 | 38 | 1013.8 |
| 20260509214800 | 55 | 301 | 9.6 | 13.0 | 0.00 | 0.09 | 0.09 | 39 | 1013.6 |
| 20260509214257 | 56 | 342 | 6.1 | 8.7 | 0.00 | 0.09 | 0.09 | 40 | 1013.8 |
| 20260509213754 | 56 | 268 | 4.3 | 8.7 | 0.00 | 0.09 | 0.09 | 42 | 1013.9 |
| 20260509213249 | 56 | 282 | 7.0 | 9.6 | 0.00 | 0.09 | 0.09 | 39 | 1013.7 |
| 20260509212747 | 55 | 311 | 7.0 | 9.6 | 0.00 | 0.09 | 0.09 | 39 | 1013.7 |
| 20260509212244 | 55 | 324 | 12.2 | 16.5 | 0.00 | 0.09 | 0.09 | 37 | 1013.7 |
| 20260509211745 | 55 | 351 | 4.3 | 13.0 | 0.00 | 0.09 | 0.09 | 40 | 1013.9 |
| 20260509211241 | 56 | 274 | 7.8 | 13.9 | 0.00 | 0.09 | 0.09 | 39 | 1013.6 |
| 20260509210738 | 55 | 269 | 5.2 | 9.6 | 0.00 | 0.09 | 0.09 | 40 | 1013.7 |
| 20260509210236 | 55 | 343 | 7.8 | 13.9 | 0.00 | 0.09 | 0.09 | 39 | 1013.8 |
| 20260509205735 | 55 | 289 | 4.3 | 11.3 | 0.00 | 0.09 | 0.09 | 41 | 1013.7 |
| 20260509205230 | 56 | 250 | 6.1 | 12.2 | 0.00 | 0.09 | 0.09 | 40 | 1013.8 |
| 20260509204726 | 56 | 262 | 7.0 | 11.3 | 0.00 | 0.09 | 0.09 | 39 | 1013.8 |
| 20260509204223 | 54 | 351 | 5.2 | 12.2 | 0.00 | 0.09 | 0.09 | 41 | 1013.7 |
| 20260509203719 | 56 | 279 | 7.8 | 14.8 | 0.00 | 0.09 | 0.09 | 39 | 1013.9 |
| 20260509203218 | 56 | 301 | 5.2 | 11.3 | 0.00 | 0.09 | 0.09 | 45 | 1013.6 |
| 20260509202713 | 55 | 57 | 3.5 | 7.8 | 0.00 | 0.09 | 0.09 | 42 | 1013.6 |
| 20260509202208 | 55 | 315 | 7.8 | 11.3 | 0.00 | 0.09 | 0.09 | 42 | 1013.6 |
| 20260509201703 | 54 | 318 | 6.1 | 13.0 | 0.00 | 0.09 | 0.09 | 42 | 1013.8 |
| 20260509201201 | 54 | 308 | 5.2 | 9.6 | 0.00 | 0.09 | 0.09 | 42 | 1013.7 |
| 20260509200657 | 54 | 315 | 7.0 | 13.9 | 0.00 | 0.09 | 0.09 | 41 | 1013.7 |
| 20260509200152 | 53 | 32 | 5.2 | 14.8 | 0.00 | 0.09 | 0.09 | 45 | 1013.8 |
| 20260509195647 | 53 | 346 | 6.1 | 12.2 | 0.00 | 0.09 | 0.09 | 44 | 1013.6 |
| 20260509195143 | 53 | 43 | 5.2 | 9.6 | 0.00 | 0.09 | 0.09 | 46 | 1013.6 |
| 20260509194637 | 53 | 14 | 4.3 | 11.3 | 0.00 | 0.09 | 0.09 | 43 | 1013.6 |
| 20260509194135 | 53 | 271 | 5.2 | 8.7 | 0.00 | 0.09 | 0.09 | 45 | 1013.5 |
| 20260509193630 | 54 | 322 | 5.2 | 8.7 | 0.00 | 0.09 | 0.09 | 45 | 1013.6 |
| 20260509193126 | 54 | 342 | 6.1 | 9.6 | 0.00 | 0.09 | 0.09 | 45 | 1013.5 |
| 20260509192623 | 53 | 23 | 4.3 | 13.9 | 0.00 | 0.09 | 0.09 | 51 | 1013.3 |
| 20260509192118 | 53 | 320 | 7.0 | 12.2 | 0.00 | 0.09 | 0.09 | 47 | 1013.3 |
| 20260509191612 | 53 | 339 | 5.2 | 12.2 | 0.00 | 0.09 | 0.09 | 46 | 1013.2 |
| 20260509191108 | 52 | 0 | 7.8 | 11.3 | 0.00 | 0.09 | 0.09 | 47 | 1013.4 |
| 20260509190605 | 53 | 3 | 3.5 | 13.0 | 0.00 | 0.09 | 0.09 | 46 | 1013.3 |
| 20260509185600 | 53 | 329 | 9.6 | 14.8 | 0.00 | 0.09 | 0.09 | 46 | 1013.3 |
| 20260509185056 | 53 | 303 | 3.5 | 9.6 | 0.00 | 0.09 | 0.09 | 47 | 1013.4 |
| 20260509184555 | 52 | 359 | 4.3 | 9.6 | 0.00 | 0.09 | 0.09 | 49 | 1013.2 |
| 20260509184051 | 52 | 283 | 5.2 | 7.8 | 0.00 | 0.09 | 0.09 | 49 | 1013.2 |
| 20260509183546 | 52 | 320 | 3.5 | 5.2 | 0.00 | 0.09 | 0.09 | 49 | 1013.4 |
| 20260509183042 | 51 | 320 | 4.3 | 7.0 | 0.00 | 0.09 | 0.09 | 50 | 1013.2 |
| 20260509182539 | 52 | 338 | 3.5 | 12.2 | 0.00 | 0.09 | 0.09 | 51 | 1013.3 |
| 20260509182036 | 51 | 320 | 6.1 | 8.7 | 0.00 | 0.09 | 0.09 | 49 | 1013.1 |
| 20260509181534 | 52 | 17 | 3.5 | 8.7 | 0.00 | 0.09 | 0.09 | 49 | 1013.2 |
| 20260509181031 | 52 | 22 | 5.2 | 8.7 | 0.00 | 0.09 | 0.09 | 50 | 1012.9 |
| 20260509180527 | 51 | 299 | 7.0 | 12.2 | 0.00 | 0.09 | 0.09 | 50 | 1013.1 |
| 20260509180025 | 51 | 242 | 4.3 | 7.8 | 0.00 | 0.09 | 0.09 | 54 | 1013.0 |
| 20260509175520 | 51 | 324 | 4.3 | 6.1 | 0.00 | 0.09 | 0.09 | 50 | 1013.0 |
| 20260509175017 | 51 | 223 | 4.3 | 8.7 | 0.00 | 0.09 | 0.09 | 52 | 1013.2 |
| 20260509174514 | 51 | 343 | 7.8 | 12.2 | 0.00 | 0.09 | 0.09 | 52 | 1013.0 |
| 20260509174009 | 51 | 265 | 3.5 | 13.0 | 0.00 | 0.09 | 0.09 | 53 | 1012.9 |
| 20260509173503 | 50 | 37 | 9.6 | 12.2 | 0.00 | 0.09 | 0.09 | 51 | 1012.9 |
| 20260509173000 | 50 | 353 | 5.2 | 7.0 | 0.00 | 0.09 | 0.09 | 54 | 1012.8 |
| 20260509172457 | 51 | 308 | 3.5 | 7.0 | 0.00 | 0.09 | 0.09 | 56 | 1012.8 |
| 20260509171952 | 50 | 245 | 2.6 | 3.5 | 0.00 | 0.09 | 0.09 | 53 | 1012.8 |
| 20260509171449 | 51 | 19 | 5.2 | 13.0 | 0.00 | 0.09 | 0.09 | 50 | 1012.9 |
| 20260509170945 | 50 | 286 | 5.2 | 6.1 | 0.00 | 0.09 | 0.09 | 55 | 1012.7 |
| 20260509170441 | 50 | 358 | 4.3 | 7.0 | 0.00 | 0.09 | 0.09 | 52 | 1012.7 |
| 20260509165936 | 50 | 326 | 3.5 | 3.5 | 0.00 | 0.09 | 0.09 | 55 | 1012.7 |
| 20260509165431 | 50 | 318 | 5.2 | 6.1 | 0.00 | 0.09 | 0.09 | 52 | 1012.5 |
| 20260509164926 | 49 | 28 | 6.1 | 12.2 | 0.00 | 0.09 | 0.09 | 53 | 1012.5 |
| 20260509164423 | 50 | 54 | 5.2 | 7.8 | 0.00 | 0.09 | 0.09 | 52 | 1012.4 |
| 20260509163919 | 49 | 351 | 6.1 | 11.3 | 0.00 | 0.09 | 0.09 | 54 | 1012.1 |
| 20260509163416 | 49 | 356 | 7.0 | 12.2 | 0.00 | 0.09 | 0.09 | 52 | 1012.2 |
| 20260509162915 | 50 | 298 | 6.1 | 9.6 | 0.00 | 0.09 | 0.09 | 54 | 1012.0 |
| 20260509162414 | 50 | 343 | 3.5 | 7.8 | 0.00 | 0.09 | 0.09 | 56 | 1012.0 |
| 20260509161910 | 49 | 10 | 4.3 | 6.1 | 0.00 | 0.09 | 0.09 | 52 | 1012.1 |
| 20260509161406 | 49 | 326 | 3.5 | 7.8 | 0.00 | 0.09 | 0.09 | 53 | 1011.9 |
| 20260509160902 | 49 | 342 | 3.5 | 13.9 | 0.00 | 0.09 | 0.09 | 52 | 1012.0 |
| 20260509160357 | 48 | 307 | 7.0 | 9.6 | 0.00 | 0.09 | 0.09 | 53 | 1012.1 |
| 20260509155853 | 49 | 268 | 5.2 | 8.7 | 0.00 | 0.09 | 0.09 | 55 | 1012.0 |
| 20260509155350 | 49 | 9 | 4.3 | 8.7 | 0.00 | 0.09 | 0.09 | 55 | 1011.7 |
| 20260509154846 | 49 | 6 | 7.0 | 8.7 | 0.00 | 0.09 | 0.09 | 55 | 1011.6 |
| 20260509154343 | 49 | 64 | 4.3 | 11.3 | 0.00 | 0.09 | 0.09 | 54 | 1011.6 |
| 20260509153839 | 49 | 1 | 4.3 | 8.7 | 0.00 | 0.09 | 0.09 | 57 | 1011.6 |
| 20260509153337 | 49 | 53 | 4.3 | 7.0 | 0.00 | 0.09 | 0.09 | 56 | 1011.5 |
| 20260509152833 | 48 | 34 | 3.5 | 9.6 | 0.00 | 0.09 | 0.09 | 57 | 1011.4 |
| 20260509152329 | 48 | 331 | 5.2 | 11.3 | 0.00 | 0.09 | 0.09 | 55 | 1011.4 |
| 20260509151827 | 48 | 303 | 7.8 | 11.3 | 0.00 | 0.09 | 0.09 | 56 | 1011.3 |
| 20260509151323 | 49 | 344 | 7.8 | 8.7 | 0.00 | 0.09 | 0.09 | 55 | 1011.3 |
| 20260509150822 | 48 | 346 | 2.6 | 12.2 | 0.00 | 0.09 | 0.09 | 57 | 1011.0 |
| 20260509150319 | 48 | 287 | 3.5 | 7.0 | 0.00 | 0.09 | 0.09 | 59 | 1011.1 |
| 20260509145816 | 49 | 319 | 4.3 | 9.6 | 0.00 | 0.09 | 0.09 | 59 | 1010.8 |
| 20260509145316 | 48 | 39 | 4.3 | 12.2 | 0.00 | 0.09 | 0.09 | 60 | 1011.1 |
| 20260509144812 | 48 | 122 | 6.1 | 8.7 | 0.00 | 0.09 | 0.09 | 59 | 1011.0 |
| 20260509144309 | 48 | 19 | 9.6 | 13.0 | 0.00 | 0.09 | 0.09 | 57 | 1010.9 |
| 20260509143806 | 48 | 344 | 7.8 | 13.9 | 0.00 | 0.09 | 0.09 | 58 | 1010.7 |
| 20260509143258 | 48 | 295 | 6.1 | 8.7 | 0.00 | 0.09 | 0.09 | 59 | 1010.7 |
| 20260509142753 | 48 | 10 | 3.5 | 8.7 | 0.00 | 0.09 | 0.09 | 62 | 1010.7 |
| 20260509142250 | 48 | 316 | 5.2 | 9.6 | 0.00 | 0.09 | 0.09 | 61 | 1010.6 |
| 20260509141745 | 48 | 323 | 5.2 | 12.2 | 0.00 | 0.09 | 0.09 | 60 | 1010.5 |
| 20260509141243 | 47 | 46 | 3.5 | 8.7 | 0.00 | 0.09 | 0.09 | 64 | 1010.7 |
| 20260509140739 | 47 | 3 | 5.2 | 9.6 | 0.00 | 0.09 | 0.09 | 62 | 1010.5 |
| 20260509140237 | 47 | 18 | 5.2 | 8.7 | 0.00 | 0.09 | 0.09 | 64 | 1010.3 |
| 20260509135734 | 47 | 36 | 4.3 | 11.3 | 0.00 | 0.09 | 0.09 | 64 | 1010.3 |
| 20260509135232 | 47 | 315 | 3.5 | 11.3 | 0.00 | 0.09 | 0.09 | 64 | 1010.4 |
| 20260509134729 | 47 | 338 | 6.1 | 7.8 | 0.00 | 0.09 | 0.09 | 65 | 1010.1 |
| 20260509134226 | 47 | 3 | 0.9 | 7.8 | 0.00 | 0.09 | 0.09 | 69 | 1010.1 |
| 20260509133723 | 47 | 35 | 3.5 | 7.0 | 0.00 | 0.09 | 0.09 | 70 | 1010.0 |
| 20260509133220 | 46 | 16 | 5.2 | 7.8 | 0.00 | 0.09 | 0.09 | 69 | 1010.0 |
| 20260509132719 | 46 | 357 | 5.2 | 8.7 | 0.00 | 0.09 | 0.09 | 72 | 1009.9 |
| 20260509132217 | 46 | 346 | 4.3 | 7.0 | 0.00 | 0.09 | 0.09 | 74 | 1009.9 |
| 20260509131713 | 46 | 29 | 7.0 | 9.6 | 0.00 | 0.09 | 0.09 | 75 | 1009.6 |
| 20260509131210 | 46 | 352 | 3.5 | 11.3 | 0.00 | 0.09 | 0.09 | 77 | 1009.5 |
| 20260509130705 | 46 | 50 | 4.3 | 9.6 | 0.00 | 0.09 | 0.09 | 79 | 1009.6 |
| 20260509130202 | 46 | 17 | 4.3 | 7.8 | 0.00 | 0.09 | 0.09 | 80 | 1009.6 |
| 20260509125658 | 45 | 42 | 5.2 | 13.0 | 0.00 | 0.09 | 0.09 | 80 | 1009.3 |
| 20260509125155 | 45 | 353 | 4.3 | 6.1 | 0.00 | 0.09 | 0.09 | 83 | 1009.2 |
| 20260509124652 | 45 | 317 | 3.5 | 7.0 | 0.00 | 0.09 | 0.09 | 83 | 1009.0 |
| 20260509124148 | 45 | 347 | 2.6 | 7.0 | 0.00 | 0.09 | 0.09 | 84 | 1009.0 |
| 20260509123647 | 45 | 347 | 3.5 | 6.1 | 0.00 | 0.09 | 0.09 | 85 | 1008.9 |
| 20260509123143 | 45 | 352 | 4.3 | 7.0 | 0.00 | 0.09 | 0.09 | 86 | 1009.0 |
| 20260509122639 | 45 | 109 | 1.7 | 3.5 | 0.00 | 0.09 | 0.09 | 86 | 1008.8 |
| 20260509122136 | 45 | 309 | 3.5 | 8.7 | 0.00 | 0.09 | 0.09 | 86 | 1008.9 |
| 20260509121632 | 44 | 336 | 3.5 | 5.2 | 0.00 | 0.09 | 0.09 | 88 | 1008.6 |
| 20260509121131 | 44 | 239 | 3.5 | 7.8 | 0.00 | 0.09 | 0.09 | 90 | 1008.4 |
| 20260509120628 | 44 | 321 | 3.5 | 6.1 | 0.00 | 0.09 | 0.09 | 92 | 1008.5 |
| 20260509120126 | 44 | 302 | 2.6 | 6.1 | 0.00 | 0.09 | 0.09 | 93 | 1008.5 |
| 20260509115623 | 44 | 294 | 3.5 | 5.2 | 0.00 | 0.09 | 0.09 | 94 | 1008.3 |
| 20260509115121 | 43 | 8 | 5.2 | 6.1 | 0.00 | 0.09 | 0.09 | 95 | 1008.1 |
| 20260509114619 | 43 | 24 | 2.6 | 2.6 | 0.00 | 0.09 | 0.09 | 96 | 1008.1 |
| 20260509114118 | 0 | 0.0 | 0.0 | 0.00 | 0.00 | 0.00 | 1008.0 | ||
| 20260509113615 | 0 | 0.0 | 0.0 | 0.00 | 0.00 | 0.00 | 1008.1 | ||
| 20260509113113 | 0 | 0.0 | 0.0 | 0.00 | 0.00 | 0.00 | 1007.8 | ||
| 20260509112609 | 0 | 0.0 | 0.0 | 0.00 | 0.00 | 0.00 | 1007.7 | ||
| 20260509112106 | 0 | 0.0 | 0.0 | 0.00 | 0.00 | 0.00 | 1007.6 | ||
| 20260509111603 | 0 | 0.0 | 0.0 | 0.00 | 0.00 | 0.00 | 1007.6 | ||
| 20260509111100 | 0 | 0.0 | 0.0 | 0.00 | 0.00 | 0.00 | 1007.4 | ||
| 20260509110557 | 44 | 339 | 3.5 | 5.2 | 0.00 | 0.09 | 0.09 | 98 | 1007.2 |
| 20260509110054 | 44 | 339 | 3.5 | 5.2 | 0.00 | 0.09 | 0.09 | 98 | 1007.1 |
| 20260509105552 | 44 | 339 | 3.5 | 5.2 | 0.00 | 0.09 | 0.09 | 98 | 1007.0 |
| 20260509105050 | 44 | 339 | 3.5 | 5.2 | 0.00 | 0.09 | 0.09 | 98 | 1007.0 |
| 20260509104546 | 44 | 339 | 3.5 | 5.2 | 0.00 | 0.09 | 0.09 | 98 | 1007.0 |
| 20260509104043 | 44 | 339 | 3.5 | 5.2 | 0.00 | 0.09 | 0.09 | 98 | 1006.8 |
| 20260509103541 | 44 | 339 | 3.5 | 5.2 | 0.00 | 0.09 | 0.09 | 98 | 1006.8 |
| 20260509103039 | 44 | 339 | 3.5 | 5.2 | 0.00 | 0.09 | 0.09 | 98 | 1006.7 |
| 20260509102536 | 44 | 339 | 3.5 | 5.2 | 0.00 | 0.09 | 0.09 | 98 | 1006.7 |
| 20260509102033 | 44 | 339 | 3.5 | 5.2 | 0.00 | 0.09 | 0.09 | 98 | 1006.7 |
| 20260509101529 | 44 | 339 | 3.5 | 5.2 | 0.00 | 0.09 | 0.09 | 98 | 1006.8 |
| 20260509101026 | 44 | 339 | 3.5 | 5.2 | 0.00 | 0.09 | 0.09 | 98 | 1006.4 |
| 20260509100523 | 44 | 344 | 2.6 | 3.5 | 0.00 | 0.09 | 0.09 | 98 | 1006.4 |
| 20260509100021 | 45 | 354 | 4.3 | 5.2 | 0.00 | 0.09 | 0.09 | 96 | 1006.7 |
| 20260509095517 | 45 | 354 | 4.3 | 5.2 | 0.00 | 0.09 | 0.09 | 96 | 1006.5 |
| 20260509095015 | 45 | 354 | 4.3 | 5.2 | 0.00 | 0.09 | 0.09 | 96 | 1006.3 |
| 20260509094511 | 45 | 354 | 4.3 | 5.2 | 0.00 | 0.09 | 0.09 | 96 | 1006.3 |
| 20260509094008 | 45 | 354 | 4.3 | 5.2 | 0.00 | 0.09 | 0.09 | 96 | 1006.0 |
| 20260509093506 | 45 | 354 | 4.3 | 5.2 | 0.00 | 0.09 | 0.09 | 96 | 1006.0 |
| 20260509093004 | 46 | 351 | 6.1 | 8.7 | 0.00 | 0.09 | 0.09 | 96 | 1005.9 |
| 20260509092501 | 46 | 38 | 5.2 | 7.0 | 0.00 | 0.09 | 0.09 | 97 | 1006.0 |
| 20260509092000 | 46 | 337 | 5.2 | 7.0 | 0.00 | 0.09 | 0.09 | 97 | 1005.7 |
| 20260509091456 | 46 | 334 | 3.5 | 7.0 | 0.00 | 0.09 | 0.09 | 98 | 1005.9 |
| 20260509090953 | 47 | 351 | 2.6 | 3.5 | 0.00 | 0.09 | 0.09 | 99 | 1005.6 |
| 20260509090451 | 47 | 271 | 1.7 | 6.1 | 0.00 | 0.09 | 0.09 | 99 | 1005.4 |
| 20260509085948 | 47 | 304 | 1.7 | 2.6 | 0.00 | 0.09 | 0.09 | 99 | 1005.3 |
| 20260509085445 | 47 | 280 | 2.6 | 3.5 | 0.00 | 0.09 | 0.09 | 99 | 1005.2 |
| 20260509084941 | 47 | 267 | 3.5 | 3.5 | 0.00 | 0.09 | 0.09 | 99 | 1005.0 |
| 20260509084438 | 47 | 264 | 1.7 | 1.7 | 0.00 | 0.09 | 0.09 | 99 | 1004.7 |
| 20260509083936 | 47 | 261 | 1.7 | 1.7 | 0.00 | 0.09 | 0.09 | 99 | 1004.9 |
| 20260509083433 | 47 | 261 | 1.7 | 1.7 | 0.00 | 0.09 | 0.09 | 99 | 1004.9 |
| 20260509082929 | 47 | 261 | 1.7 | 1.7 | 0.00 | 0.09 | 0.09 | 99 | 1004.9 |
| 20260509082427 | 47 | 259 | 1.7 | 1.7 | 0.00 | 0.09 | 0.09 | 99 | 1004.6 |
| 20260509081923 | 47 | 265 | 0.9 | 0.9 | 0.00 | 0.09 | 0.09 | 99 | 1004.6 |
| 20260509081421 | 47 | 247 | 0.0 | 0.9 | 0.00 | 0.09 | 0.09 | 99 | 1004.5 |
| 20260509080918 | 47 | 247 | 0.0 | 0.9 | 0.00 | 0.09 | 0.09 | 99 | 1004.4 |
| 20260509080416 | 47 | 257 | 0.0 | 0.9 | 0.00 | 0.09 | 0.09 | 99 | 1004.6 |
| 20260509075914 | 47 | 273 | 0.9 | 0.9 | 0.00 | 0.09 | 0.09 | 99 | 1004.4 |
| 20260509075411 | 47 | 268 | 0.0 | 0.9 | 0.00 | 0.09 | 0.09 | 99 | 1004.3 |
| 20260509074908 | 47 | 254 | 0.0 | 0.0 | 0.00 | 0.09 | 0.09 | 99 | 1004.3 |
| 20260509074406 | 47 | 221 | 0.0 | 0.0 | 0.00 | 0.09 | 0.09 | 99 | 1004.3 |
| 20260509073902 | 47 | 249 | 0.0 | 0.0 | 0.00 | 0.09 | 0.09 | 99 | 1004.2 |
| 20260509073358 | 47 | 249 | 0.0 | 0.9 | 0.00 | 0.09 | 0.09 | 99 | 1004.4 |
| 20260509072855 | 47 | 191 | 0.0 | 0.9 | 0.00 | 0.09 | 0.09 | 99 | 1004.5 |
| 20260509072351 | 47 | 169 | 0.0 | 0.9 | 0.00 | 0.09 | 0.09 | 99 | 1004.7 |
| 20260509071848 | 47 | 322 | 0.9 | 0.9 | 0.07 | 0.09 | 0.09 | 99 | 1005.1 |
| 20260509071345 | 47 | 131 | 0.9 | 0.9 | 0.38 | 0.09 | 0.09 | 98 | 1004.4 |
| 20260509070843 | 47 | 251 | 0.9 | 0.9 | 0.31 | 0.08 | 0.08 | 98 | 1004.5 |
| 20260509070339 | 48 | 25 | 3.5 | 5.2 | 0.00 | 0.03 | 0.03 | 96 | 1005.3 |
| 20260509065835 | 48 | 25 | 3.5 | 5.2 | 0.00 | 0.03 | 0.03 | 96 | 1005.3 |
| 20260509065332 | 48 | 25 | 3.5 | 5.2 | 0.00 | 0.03 | 0.03 | 96 | 1005.1 |
| 20260509064827 | 48 | 25 | 3.5 | 5.2 | 0.05 | 0.03 | 0.03 | 96 | 1005.3 |
| 20260509064325 | 48 | 25 | 3.5 | 5.2 | 0.05 | 0.03 | 0.03 | 96 | 1005.4 |
| 20260509063823 | 48 | 30 | 3.5 | 3.5 | 0.07 | 0.02 | 0.02 | 96 | 1005.7 |
| 20260509063319 | 48 | 31 | 4.3 | 7.0 | 0.12 | 0.02 | 0.02 | 95 | 1005.6 |
| 20260509062816 | 48 | 29 | 7.8 | 9.6 | 0.05 | 0.01 | 0.01 | 94 | 1005.5 |
| 20260509062313 | 50 | 4 | 3.5 | 5.2 | 0.00 | 0.00 | 0.00 | 88 | 1005.5 |
| 20260509061810 | 50 | 4 | 3.5 | 5.2 | 0.00 | 0.00 | 0.00 | 88 | 1005.4 |
| 20260509061309 | 50 | 4 | 3.5 | 5.2 | 0.00 | 0.00 | 0.00 | 88 | 1005.4 |
| 20260509060805 | 50 | 4 | 3.5 | 5.2 | 0.00 | 0.00 | 0.00 | 88 | 1005.4 |
| 20260509060301 | 50 | 4 | 3.5 | 5.2 | 0.00 | 0.00 | 0.00 | 88 | 1005.6 |
| 20260509055756 | 50 | 257 | 2.6 | 6.1 | 0.00 | 0.00 | 0.00 | 87 | 1005.7 |
| 20260509055252 | 51 | 43 | 7.0 | 8.7 | 0.00 | 0.00 | 0.00 | 85 | 1005.7 |
| 20260509054744 | 54 | 346 | 9.6 | 12.2 | 0.00 | 0.00 | 0.00 | 73 | 1005.6 |
| 20260509054241 | 54 | 346 | 9.6 | 12.2 | 0.00 | 0.00 | 0.00 | 73 | 1005.8 |
| 20260509053740 | 55 | 348 | 5.2 | 11.3 | 0.00 | 0.00 | 0.00 | 66 | 1005.5 |
| 20260509053236 | 55 | 289 | 6.1 | 7.8 | 0.00 | 0.00 | 0.00 | 65 | 1005.7 |
| 20260509052734 | 55 | 320 | 8.7 | 9.6 | 0.00 | 0.00 | 0.00 | 64 | 1005.7 |
| 20260509052231 | 56 | 322 | 4.3 | 9.6 | 0.00 | 0.00 | 0.00 | 62 | 1005.7 |
| 20260509051729 | 56 | 235 | 7.8 | 9.6 | 0.00 | 0.00 | 0.00 | 59 | 1005.4 |
| 20260509051227 | 56 | 322 | 12.2 | 15.6 | 0.00 | 0.00 | 0.00 | 58 | 1005.5 |
| 20260509050723 | 56 | 315 | 7.0 | 11.3 | 0.00 | 0.00 | 0.00 | 55 | 1005.4 |
| 20260509050219 | 57 | 10 | 9.6 | 13.9 | 0.00 | 0.00 | 0.00 | 53 | 1005.4 |
| 20260509045717 | 55 | 278 | 3.5 | 6.1 | 0.00 | 0.00 | 0.00 | 51 | 1005.2 |
| 20260509045214 | 55 | 275 | 5.2 | 7.0 | 0.00 | 0.00 | 0.00 | 50 | 1005.1 |
| 20260509044711 | 54 | 261 | 1.7 | 3.5 | 0.00 | 0.00 | 0.00 | 54 | 1005.0 |
| 20260509044209 | 54 | 260 | 3.5 | 3.5 | 0.00 | 0.00 | 0.00 | 53 | 1004.9 |
| 20260509043705 | 51 | 249 | 0.9 | 2.6 | 0.00 | 0.00 | 0.00 | 63 | 1004.4 |
| 20260509043201 | 51 | 235 | 0.0 | 0.0 | 0.00 | 0.00 | 0.00 | 66 | 1004.2 |
| 20260509042657 | 50 | 255 | 0.0 | 0.9 | 0.00 | 0.00 | 0.00 | 70 | 1003.9 |
| 20260509042153 | 51 | 207 | 0.0 | 0.9 | 0.00 | 0.00 | 0.00 | 73 | 1004.3 |
| 20260509041650 | 50 | 218 | 0.0 | 0.0 | 0.00 | 0.00 | 0.00 | 73 | 1004.2 |